Probability
0 0 0 0 0 0 0 0 0 0 0 0 0 0 0 0 0 0 0 10 23 19 19 26 19 29 26 23 13 19 19 19 23 26 16 23 23 26 23 19 23 19 23
0 0 0 0 0 0 0 0 0 0 0 0 0 0 0 0 0 0 0 0 13 26 29 23 13 16 29 23 23 13 13 13 16 16 16 16 23 23 19 16 13 13 13
0 0 0 0 0 0 0 0 0 0 0 0 0 0 0 0 0 0 0 0 0 10 16 19 19 19 19 19 16 10 10 13 13 16 16 13 19 16 19 13 10 10 16
0 0 0 0 0 0 0 0 0 0 0 0 0 0 0 0 0 0 0 0 0 0 3 10 16 16 23 23 13 10 10 13 16 16 13 13 13 13 10 10 6 10 6
0 0 0 0 0 0 0 0 0 0 0 0 0 0 0 0 0 0 0 0 0 0 0 0 10 13 16 16 19 10 10 10 13 13 10 6 6 6 10 10 6 6 3
0 0 0 0 0 0 0 0 0 0 0 0 0 0 0 0 0 0 0 0 0 0 0 0 0 0 10 16 19 10 6 6 6 10 6 3 3 0 6 3 3 6 6
0 0 0 0 0 0 0 0 0 0 0 0 0 0 0 0 0 0 0 0 0 0 0 0 0 0 0 6 10 6 0 0 6 3 3 0 0 0 0 0 0 0 0
0 0 0 0 0 0 0 0 0 0 0 0 0 0 0 0 0 0 0 0 0 0 0 0 0 0 0 0 0 3 3 3 3 3 3 3 0 0 0 0 0 0 0
0 0 0 0 0 0 0 0 0 0 0 0 0 0 0 0 0 0 0 0 0 0 0 0 0 0 0 0 0 0 0 0 3 3 3 3 6 3 3 3 0 3 0
0 0 0 0 0 0 0 0 0 0 0 0 0 0 0 0 0 0 0 0 0 0 0 0 0 0 0 0 0 0 0 0 0 0 0 3 3 3 6 6 6 0 0
0 0 0 0 0 0 0 0 0 0 0 0 0 0 0 0 0 0 0 0 0 0 0 0 0 0 0 0 0 0 0 0 0 0 0 0 0 0 3 6 3 3 0
0 0 0 0 0 0 0 0 0 0 0 0 0 0 0 0 0 0 0 0 0 0 0 0 0 0 0 0 0 0 0 0 0 0 0 0 0 0 3 3 3 3 0
0 0 0 0 0 0 0 0 0 0 0 0 0 0 0 0 0 0 0 0 0 0 0 0 0 0 0 0 0 0 0 0 0 0 0 0 0 0 3 0 0 0 0
0 0 0 0 0 0 0 0 0 0 0 0 0 0 0 0 0 0 0 0 0 0 0 0 0 0 0 0 0 0 0 0 0 0 0 0 0 0 0 0 0 0 0
0 0 0 0 0 0 0 0 0 0 0 0 0 0 0 0 0 0 0 0 0 0 0 0 0 0 0 0 0 0 0 0 0 0 0 0 0 0 0 0 0 0 3
0 0 0 0 0 0 0 0 0 0 0 0 0 0 0 0 0 0 0 0 0 0 0 0 0 0 0 0 0 0 0 0 0 0 0 0 0 0 0 0 0 0 0
0 0 0 0 0 0 0 0 0 0 0 0 0 0 0 0 0 0 0 0 0 0 0 0 0 0 0 0 0 0 0 0 0 0 0 0 0 0 0 0 0 0 0
0 0 0 0 0 0 0 0 0 0 0 0 0 0 0 0 0 0 0 0 0 0 0 0 0 0 0 0 0 0 0 0 0 0 0 0 0 0 0 0 0 0 0
0 0 0 0 0 0 0 0 0 0 0 0 0 0 0 0 0 0 0 0 0 0 0 0 0 0 0 0 0 0 0 0 0 0 0 0 0 0 0 0 0 0 0
0 0 0 0 0 0 0 0 0 0 0 0 0 0 0 0 0 0 0 0 0 0 0 0 0 0 0 0 0 0 0 0 0 0 0 0 0 0 0 0 0 0 0
0 0 0 0 0 0 0 0 0 0 0 0 0 0 0 0 0 0 0 0 0 0 0 0 0 0 0 0 0 0 0 0 0 0 0 0 0 0 0 0 0 0 0
0 0 0 0 0 0 0 0 0 0 0 0 0 0 0 0 0 0 0 0 0 0 0 0 0 0 0 0 0 0 0 0 0 0 0 0 0 0 0 0 0 0 0
0 0 0 0 0 0 0 0 0 0 0 0 0 0 0 0 0 0 0 0 0 0 0 0 0 0 0 0 0 0 0 0 0 0 0 0 0 0 0 0 0 0 0
0 0 0 0 0 0 0 0 0 0 0 0 0 0 0 0 0 0 0 0 0 0 0 0 0 0 0 0 0 0 0 0 0 0 0 0 0 0 0 0 0 0 0
0 0 0 0 0 0 0 0 0 0 0 0 0 0 0 0 0 0 0 0 0 0 0 0 0 0 0 0 0 0 0 0 0 0 0 0 0 0 0 0 0 0 0
0 0 0 0 0 0 0 0 0 0 0 0 0 0 0 0 0 0 0 0 0 0 0 0 0 0 0 0 0 0 0 0 0 0 0 0 0 0 0 0 0 0 0
Height
5890 5890 5889 5889 5888 5888 5887 5886 5885 5884 5883 5882 5881 5880 5879 5877 5876 5875 5874 5873 5872 5871 5870 5870 5869 5869 5868 5868 5867 5867 5867 5867 5867 5866 5867 5867 5867 5867 5867 5867 5867 5867 5867
5888 5888 5887 5887 5886 5886 5885 5884 5884 5883 5882 5881 5880 5878 5877 5876 5875 5873 5872 5871 5870 5869 5868 5867 5867 5866 5866 5865 5865 5864 5864 5864 5864 5864 5864 5864 5864 5864 5864 5864 5864 5864 5864
5886 5885 5885 5885 5885 5884 5883 5883 5882 5881 5880 5879 5878 5877 5876 5874 5873 5871 5870 5869 5868 5867 5866 5865 5864 5863 5863 5862 5862 5862 5862 5861 5861 5861 5861 5861 5861 5861 5861 5861 5861 5861 5861
5884 5884 5884 5883 5883 5882 5881 5881 5880 5880 5879 5878 5877 5875 5874 5873 5871 5870 5868 5867 5866 5865 5864 5863 5862 5860 5860 5859 5859 5859 5859 5859 5858 5858 5858 5858 5858 5858 5858 5857 5857 5857 5857
5882 5882 5882 5881 5880 5880 5879 5879 5878 5877 5877 5876 5875 5874 5872 5871 5869 5868 5866 5865 5864 5863 5862 5861 5860 5858 5857 5857 5856 5856 5856 5856 5855 5855 5855 5854 5854 5854 5854 5854 5854 5854 5854
5879 5879 5879 5879 5878 5878 5877 5877 5876 5875 5874 5874 5873 5871 5870 5869 5867 5866 5864 5863 5862 5861 5859 5858 5857 5856 5855 5854 5854 5853 5853 5853 5853 5852 5852 5851 5851 5851 5851 5850 5850 5850 5850
5877 5877 5877 5876 5876 5876 5875 5874 5874 5873 5872 5871 5871 5869 5868 5867 5865 5864 5862 5861 5860 5859 5857 5856 5855 5854 5853 5852 5851 5851 5850 5850 5850 5849 5849 5848 5848 5848 5847 5847 5847 5846 5846
5874 5874 5874 5874 5874 5873 5873 5872 5871 5871 5870 5869 5868 5867 5866 5865 5863 5862 5861 5859 5858 5856 5855 5854 5853 5851 5850 5850 5849 5848 5848 5847 5847 5846 5846 5845 5845 5844 5844 5843 5843 5843 5842
5871 5872 5872 5871 5871 5871 5870 5870 5869 5869 5868 5867 5866 5866 5864 5863 5861 5860 5859 5857 5856 5854 5853 5852 5850 5849 5848 5848 5847 5846 5846 5845 5844 5843 5843 5842 5841 5840 5840 5839 5839 5839 5838
5868 5868 5869 5869 5868 5868 5868 5867 5867 5866 5866 5865 5864 5863 5862 5861 5860 5858 5857 5855 5854 5852 5851 5850 5848 5847 5846 5845 5845 5844 5843 5842 5841 5840 5839 5838 5837 5836 5836 5835 5835 5835 5834
5865 5865 5865 5866 5866 5865 5865 5865 5864 5864 5863 5863 5862 5861 5860 5859 5857 5856 5855 5854 5852 5851 5849 5847 5846 5845 5844 5843 5842 5841 5840 5839 5838 5837 5836 5835 5834 5833 5832 5831 5831 5831 5830
5862 5862 5862 5862 5862 5862 5862 5862 5862 5861 5860 5860 5859 5858 5857 5856 5855 5854 5853 5851 5850 5849 5847 5845 5844 5842 5841 5840 5839 5838 5837 5836 5835 5834 5833 5832 5831 5829 5828 5828 5827 5827 5826
5858 5859 5859 5859 5859 5859 5859 5859 5858 5858 5857 5857 5856 5855 5854 5853 5852 5851 5850 5849 5847 5846 5845 5843 5841 5840 5839 5838 5837 5836 5835 5833 5832 5831 5830 5829 5827 5826 5825 5824 5823 5823 5822
5855 5855 5855 5855 5855 5855 5856 5856 5855 5855 5854 5854 5853 5853 5852 5851 5850 5849 5848 5847 5845 5844 5842 5840 5838 5837 5836 5835 5834 5833 5832 5831 5829 5828 5827 5825 5824 5822 5821 5820 5819 5818 5817
5851 5851 5852 5852 5852 5852 5852 5852 5852 5852 5851 5851 5850 5849 5849 5848 5847 5846 5845 5844 5843 5841 5840 5837 5835 5833 5832 5832 5831 5830 5829 5828 5826 5825 5823 5822 5820 5818 5817 5815 5814 5813 5812
5847 5848 5848 5848 5848 5848 5848 5849 5849 5848 5848 5848 5847 5846 5846 5845 5844 5843 5842 5841 5840 5838 5836 5834 5831 5830 5829 5828 5828 5827 5826 5824 5823 5821 5820 5818 5816 5814 5812 5811 5809 5807 5806
5844 5844 5844 5844 5844 5844 5845 5845 5845 5845 5845 5845 5844 5843 5842 5842 5841 5840 5839 5838 5837 5835 5833 5831 5829 5827 5826 5825 5824 5824 5823 5821 5819 5818 5816 5814 5812 5810 5808 5806 5804 5802 5800
5840 5840 5840 5840 5841 5841 5841 5841 5842 5841 5841 5841 5841 5840 5839 5839 5838 5837 5836 5835 5834 5833 5831 5829 5827 5825 5823 5822 5821 5820 5819 5817 5815 5814 5812 5809 5807 5805 5803 5800 5798 5796 5793
5836 5836 5837 5837 5837 5837 5837 5837 5838 5838 5838 5837 5837 5837 5836 5835 5835 5834 5833 5832 5831 5829 5828 5826 5824 5823 5821 5820 5818 5817 5815 5813 5812 5809 5807 5805 5802 5799 5797 5794 5792 5789 5786
5832 5833 5833 5833 5833 5833 5833 5834 5834 5834 5834 5834 5834 5834 5833 5833 5832 5831 5830 5829 5827 5826 5825 5823 5821 5820 5818 5816 5815 5813 5811 5809 5807 5805 5802 5799 5797 5794 5791 5789 5786 5783 5780
5828 5829 5829 5829 5829 5829 5830 5830 5830 5831 5831 5831 5831 5830 5830 5829 5828 5828 5827 5826 5824 5823 5821 5820 5818 5816 5814 5812 5810 5809 5807 5804 5802 5800 5797 5794 5791 5788 5785 5782 5779 5776 5772
5824 5824 5825 5825 5825 5825 5826 5826 5827 5827 5827 5827 5827 5827 5826 5825 5825 5824 5823 5822 5820 5819 5817 5816 5814 5812 5810 5808 5806 5804 5802 5799 5797 5795 5791 5788 5785 5782 5779 5775 5772 5769 5765
5820 5820 5820 5821 5821 5821 5822 5822 5822 5823 5823 5823 5824 5823 5823 5822 5821 5820 5819 5818 5816 5814 5813 5812 5810 5808 5806 5804 5802 5799 5796 5794 5791 5788 5785 5782 5778 5775 5772 5768 5765 5761 5758
5815 5816 5816 5817 5817 5818 5818 5818 5818 5819 5819 5819 5819 5819 5819 5818 5817 5816 5815 5813 5812 5810 5809 5807 5805 5803 5801 5798 5795 5793 5790 5787 5785 5782 5778 5775 5771 5768 5764 5761 5757 5753 5749
5811 5811 5812 5812 5813 5814 5814 5814 5814 5814 5814 5815 5815 5815 5814 5813 5812 5811 5810 5809 5807 5805 5803 5801 5799 5797 5795 5792 5789 5786 5784 5781 5778 5775 5771 5768 5764 5761 5757 5753 5749 5745 5740
5806 5807 5807 5808 5809 5809 5809 5810 5810 5810 5810 5810 5810 5810 5809 5808 5807 5806 5805 5803 5801 5800 5798 5796 5793 5791 5788 5786 5783 5780 5777 5774 5771 5768 5764 5760 5757 5753 5750 5745 5741 5736 5731
Wind_Speed
7 8 8 8 8 8 7 8 7 7 7 7 7 7 7 8 8 8 8 9 9 9 9 10 9 9 10 10 10 11 12 12 12 11 13 13 13 13 13 13 13 13 12
8 8 9 9 9 8 8 8 8 8 7 7 7 7 8 8 8 8 9 9 9 9 10 10 10 9 10 10 10 10 10 11 12 12 13 14 15 14 14 14 14 14 14
9 9 9 9 9 8 8 8 8 7 7 7 7 8 8 9 9 9 9 10 10 9 9 9 9 10 10 10 11 11 11 12 12 12 13 14 14 14 15 15 15 15 14
8 8 8 8 9 8 8 7 8 8 8 8 8 9 9 9 9 9 10 10 9 9 10 10 10 10 10 11 11 11 12 12 12 12 12 13 14 14 14 14 15 15 15
8 9 8 8 8 8 7 8 8 9 9 9 9 9 10 10 10 10 10 10 9 10 10 10 10 10 10 11 11 11 11 11 12 12 12 12 12 13 14 15 15 15 15
9 9 8 8 8 8 8 8 9 9 9 10 10 10 10 10 10 10 10 10 10 10 10 10 10 10 10 10 10 11 11 11 11 12 12 12 12 13 13 14 14 15 15
9 9 8 8 8 9 9 9 8 9 9 9 10 10 10 10 9 9 10 10 10 10 10 10 10 10 9 10 10 10 10 11 11 11 12 12 13 13 14 14 14 15 15
10 10 10 9 9 9 9 9 8 9 9 10 10 10 9 9 9 9 9 10 10 10 10 10 10 9 9 9 9 9 10 10 10 10 12 12 13 14 14 14 14 15 15
11 11 11 10 10 10 9 9 9 10 10 10 10 10 9 8 9 9 9 9 9 9 9 10 9 9 9 9 9 10 10 10 11 11 12 12 13 15 14 15 15 15 16
12 12 12 11 11 10 10 9 10 10 10 10 10 10 9 8 7 8 9 9 9 8 9 9 9 9 9 10 10 11 11 11 11 12 12 13 14 14 13 14 14 14 15
12 12 12 12 11 11 11 11 11 11 11 11 10 10 9 9 8 7 8 9 9 9 9 9 9 9 10 10 10 10 10 11 11 11 12 12 13 13 12 13 13 14 15
14 13 13 12 12 11 11 11 11 12 11 11 10 10 9 10 9 8 8 9 9 9 10 9 9 9 9 9 9 10 10 10 10 11 11 12 12 12 12 13 14 14 15
14 14 13 13 13 13 12 12 12 11 11 11 11 10 10 10 10 9 8 8 9 9 9 10 10 10 10 9 9 10 10 10 11 11 12 13 12 13 13 14 14 15 16
14 13 13 13 13 13 13 12 12 11 11 12 11 11 11 10 10 10 9 8 8 9 10 10 11 11 11 10 10 10 11 11 12 12 13 14 14 14 14 15 16 17 18
14 13 13 13 13 14 13 12 11 12 12 11 10 11 11 11 10 10 10 9 9 9 10 11 11 12 12 12 12 12 12 13 14 14 14 15 15 15 16 16 18 19 19
13 13 13 13 13 13 13 12 12 13 13 12 11 11 11 10 10 10 10 9 9 9 10 10 11 11 11 12 12 12 13 13 14 15 15 15 16 16 17 17 18 19 21
14 14 13 13 13 13 12 12 13 13 13 12 12 11 11 10 10 10 10 10 10 10 10 11 11 11 11 12 12 13 13 14 15 16 16 17 17 18 18 19 20 20 21
14 14 14 13 13 12 12 13 13 13 12 13 12 11 10 9 10 10 10 10 10 10 11 11 11 11 12 12 13 14 14 15 16 16 17 18 19 19 20 20 21 22 22
15 15 15 14 13 13 13 13 12 12 11 12 11 10 9 10 11 11 11 11 11 12 12 12 12 12 13 14 14 15 16 17 18 18 19 20 21 21 21 21 22 23 24
15 15 15 14 13 13 13 13 12 11 11 11 11 11 10 10 11 11 11 11 12 13 13 13 14 14 15 15 16 17 18 19 19 20 21 22 23 23 23 23 24 24 25
15 14 14 14 13 13 13 13 12 12 11 11 11 11 11 11 11 12 12 13 13 14 14 15 15 15 16 16 18 19 20 20 21 22 22 23 23 24 24 25 25 26 27
16 15 15 14 13 14 14 13 12 12 12 12 12 12 12 12 13 13 14 15 15 15 16 16 16 16 17 18 19 20 21 22 23 23 24 24 25 26 26 26 27 27 28
16 15 14 14 14 14 14 14 14 14 14 14 14 14 13 14 14 15 15 16 16 17 17 17 17 18 19 20 21 22 22 23 23 24 25 26 27 27 27 28 28 29 29
16 15 15 15 14 14 15 15 15 15 15 15 15 15 15 16 16 16 17 17 17 18 18 18 19 20 21 22 23 23 23 24 25 26 26 27 28 28 29 29 29 30 31
16 16 16 16 15 16 16 17 17 17 17 17 16 16 17 17 18 18 18 19 19 19 20 20 21 21 22 23 24 24 24 25 26 26 27 27 28 29 30 31 31 32 33
17 17 16 17 17 17 17 18 18 18 18 18 18 18 18 19 19 19 20 20 20 21 21 21 21 22 23 24 24 25 25 26 26 27 27 28 29 29 30 32 33 34 34
Wind_Direction
269 268 269 274 278 283 286 294 297 300 307 312 312 314 316 314 311 308 303 299 296 293 290 287 283 279 278 274 273 270 267 264 264 263 259 256 258 260 261 263 262 263 265
261 269 273 272 277 278 281 287 288 294 302 307 307 309 313 314 311 307 303 299 297 297 293 288 284 282 277 275 273 270 269 267 263 265 266 260 256 258 260 262 263 265 265
265 267 274 276 278 280 282 282 286 292 298 305 306 309 310 311 308 306 303 301 300 299 297 292 287 284 281 279 274 269 267 268 267 268 266 263 259 260 263 263 264 265 265
273 272 270 276 279 281 282 283 287 291 298 304 308 309 310 310 308 306 303 302 300 299 296 292 288 286 283 279 274 270 267 267 267 269 271 265 263 261 262 264 264 264 265
271 272 271 275 277 279 284 286 288 290 294 298 303 308 310 310 309 307 306 304 301 298 295 292 289 288 282 278 276 274 268 268 267 270 275 270 265 264 264 264 265 266 266
266 266 267 270 273 279 285 287 291 291 292 294 298 302 307 310 309 307 305 304 302 299 297 294 292 289 285 279 278 275 272 270 271 272 274 273 272 267 268 266 266 267 265
261 262 264 268 274 280 285 287 289 290 290 295 296 299 304 307 304 305 305 305 305 301 300 297 294 291 285 283 279 277 277 274 276 277 279 277 275 271 267 266 267 266 265
257 260 264 268 274 279 281 282 286 291 293 297 297 302 307 308 305 303 305 306 306 302 300 298 296 294 291 286 280 280 282 279 280 281 282 279 277 275 271 268 269 267 266
257 260 261 264 271 275 280 283 287 290 293 296 295 299 304 308 306 307 307 307 306 304 303 304 301 297 290 287 286 284 281 279 282 286 286 284 282 278 273 270 269 270 270
258 262 261 264 268 270 275 281 284 287 291 293 295 295 298 303 299 304 306 307 305 303 305 307 303 297 292 290 290 287 285 281 282 284 287 288 288 281 274 272 273 274 275
258 262 265 264 266 269 273 276 280 284 288 289 291 293 296 299 298 301 301 303 301 301 302 303 301 296 293 292 294 293 291 287 285 286 288 291 290 284 278 276 275 276 275
257 261 264 266 265 267 270 275 278 281 284 288 290 289 293 296 296 297 298 300 300 300 303 304 298 295 295 296 297 295 296 293 292 290 292 293 292 287 282 278 277 278 277
257 260 263 264 263 265 267 271 273 278 281 286 288 288 290 293 294 294 295 298 300 299 303 303 299 296 294 295 295 294 295 293 296 295 293 297 292 290 285 281 281 280 279
255 258 261 263 262 264 265 270 273 279 282 285 286 287 288 288 288 288 292 296 299 298 301 300 297 296 295 294 296 296 296 294 293 296 296 297 295 292 290 285 281 279 278
253 255 257 259 259 259 262 269 275 281 282 282 283 287 288 286 283 286 291 295 298 296 296 299 296 294 292 291 294 296 296 294 294 294 298 299 298 293 292 292 288 283 281
255 255 257 260 258 258 260 265 273 277 277 278 281 286 286 286 284 286 294 298 301 302 304 308 304 299 296 294 293 295 298 298 300 300 301 301 300 298 296 297 296 289 284
256 256 258 259 258 258 256 262 270 272 271 273 279 280 280 284 284 284 287 292 297 300 304 308 306 303 299 295 294 296 297 299 299 300 302 303 301 299 298 296 295 293 289
254 255 259 258 258 258 259 260 264 268 267 269 273 273 275 280 284 284 287 289 294 297 302 305 308 307 301 297 296 298 300 300 300 302 303 304 302 300 298 296 295 293 292
254 256 258 260 260 258 259 258 260 264 266 267 266 269 276 279 280 282 288 292 293 297 301 305 305 306 303 299 299 300 301 301 302 303 304 304 303 302 300 298 297 295 294
252 255 258 262 262 258 258 255 256 259 261 263 266 270 276 281 284 284 290 296 296 297 298 301 301 302 304 301 299 301 302 302 302 302 303 303 304 303 300 299 298 296 295
249 255 258 260 259 257 257 256 256 258 261 265 267 270 277 282 284 286 291 295 295 296 296 299 300 301 303 303 301 301 302 303 302 302 302 303 305 305 304 303 301 299 297
250 254 259 256 256 255 254 253 255 259 261 267 272 277 282 286 287 290 294 295 295 296 298 298 299 299 300 301 302 301 300 301 302 303 302 303 304 305 304 303 302 300 299
251 255 255 255 257 254 254 255 259 261 263 269 274 276 281 286 289 292 293 295 295 296 297 299 299 299 299 301 304 304 301 300 301 302 302 303 304 304 305 304 303 302 301
251 254 254 254 255 255 255 258 261 262 265 268 273 275 278 284 287 288 290 292 294 294 295 296 296 297 300 301 303 303 301 301 301 301 302 303 305 306 306 306 305 304 303
251 254 253 253 255 257 258 260 264 265 265 269 271 274 278 283 287 288 290 292 293 293 294 297 297 297 299 302 303 303 303 302 302 303 304 304 305 305 305 306 306 305 305
252 253 254 255 256 257 260 261 265 266 266 268 269 273 278 282 286 288 291 293 294 295 296 297 299 299 300 302 302 303 304 304 303 303 304 304 304 304 304 304 304 304 304